HULIANWANG DIGUI 14C

Last updated on Wed Dec 10 2025 00:02:08 GMT+0000 (Coordinated Universal Time)

1 66917U 25285C 25343.64409382 -.00000160 00000+0 -45520-5 0 9993 2 66917 50.0010 129.9016 0007536 274.6671 85.3374 14.05578397 479
UTC large
Height (km)
Speed (km/s)
/
Latitude / Longitude
Inclination (degrees)
Orbital Period (minutes)
Azimuth
Elevation
Range (km)
Doppler Factor

Next 0 passes for location: London (51.5072 / 0.1276)

Sorry there are no passes over London.